Regional Weather Roundup
Issued by NWS Little Rock, AR

Home | Current Version | Previous Version | Graphics & Text | Print | Product List | Glossary On
Versions: 1 2 3 4 5 6 7 8 9 10 11 12 13 14 15 16 17 18 19 20 21 22 23 24 25 26 27 28
000
ASUS44 KLZK 261705
RWRLZK

WEATHER ROUNDUP FOR ARKANSAS
NATIONAL WEATHER SERVICE LITTLE ROCK AR
1200 PM CDT THU MAY 26 2016

NOTE: "FAIR" INDICATES FEW OR NO CLOUDS BELOW 12,000 FEET WITH NO
SIGNIFICANT WEATHER AND/OR OBSTRUCTIONS TO VISIBILITY.

ARZ001-003-010-029-261800-
NORTHWEST ARKANSAS

CITY           SKY/WX    TMP DP  RH WIND       PRES   REMARKS
FAYETTEVILLE   MOSUNNY   79  72  79 S9        29.98S
FORT SMITH     CLOUDY    83  70  64 S8        29.93F HX  87
HARRISON       SUNNY     83  73  72 S10       29.99F HX  89
BENTONVILLE    MOSUNNY   82  70  65 S9        29.97F HX  86
ROGERS           N/A     82  72  71 S13       29.97F HX  87
SILOAM SPGS    CLOUDY    81  66  61 S10G16    29.97F
HIGHFILL       PTSUNNY   81  73  76 S12       29.96F HX  86
SPRINGDALE     CLOUDY    81  72  74 S12       30.00S
$$

ARZ004-005-016-261800-
NORTH CENTRAL ARKANSAS

CITY           SKY/WX    TMP DP  RH WIND       PRES   REMARKS
BATESVILLE     PTSUNNY   82  72  69 S7        30.02S HX  87
FLIPPIN        CLOUDY   N/A N/A N/A S6        29.94F
MTN HOME       PTSUNNY   84  73  69 S13       29.96F HX  90
$$

ARZ040-041-261800-
WEST CENTRAL ARKANSAS

CITY           SKY/WX    TMP DP  RH WIND       PRES   REMARKS
MENA           CLOUDY    79  73  83 S6        29.99F
MOUNT IDA      PTSUNNY   81  71  71 VRB5      29.97S HX  85
$$

ARZ009-017-025-026-028-261800-
NORTHEAST ARKANSAS

CITY           SKY/WX    TMP DP  RH WIND       PRES   REMARKS
CORNING          N/A     81  77  89 S16       30.01F HX  88
JONESBORO      CLOUDY    80  72  76 SW16      30.03R
NEWPORT        PTSUNNY   82  74  77 S10       30.04S HX  88
WALNUT RIDGE   MOSUNNY   79  72  78 S20       30.01S
BLYTHEVILLE    PTSUNNY   83  73  72 S14       30.03F HX  89
NW BLYTHEVILLE PTSUNNY   84  73  70 SW14G24   30.03F HX  91
$$

ARZ022-023-033-042-044-261800-
CENTRAL ARKANSAS

CITY           SKY/WX    TMP DP  RH WIND       PRES   REMARKS
LITTLE ROCK    PTSUNNY   86  72  62 S10       30.00F HX  92
SEARCY         CLOUDY    83  74  74 S10       30.02F HX  89
HOT SPRINGS    CLOUDY    82  71  69 S7        30.00F HX  86
RUSSELLVILLE   CLOUDY    84  71  65 VRB5      29.97F HX  89
CLINTON        PTSUNNY   82  73  74 SE5       30.00F HX  88
$$

ARZ036-261800-
EAST ARKANSAS

CITY           SKY/WX    TMP DP  RH WIND       PRES   REMARKS
WEST MEMPHIS   CLOUDY    83  72  69 S14       30.03F HX  88
$$

ARZ050-053-066-070-073-261800-
SOUTHWEST ARKANSAS

CITY           SKY/WX    TMP DP  RH WIND       PRES   REMARKS
ARKADELPHIA    FAIR      84  73  69 S12       30.00F HX  90
CAMDEN         CLOUDY    86  72  62 S9        30.00F HX  92
TEXARKANA      CLOUDY    81  73  76 S8        29.97F HX  86
EL DORADO      CLOUDY    84  72  67 S10       30.01F HX  89
DE QUEEN       CLOUDY    81  74  79 S8        29.93F HX  86
$$

ARZ056-057-069-261800-
SOUTHEAST ARKANSAS

CITY           SKY/WX    TMP DP  RH WIND       PRES   REMARKS
PINE BLUFF     PTSUNNY   84  72  67 SW14      30.02F HX  89
STUTTGART      CLOUDY    84  72  65 S16       30.03S HX  89
MONTICELLO     PTSUNNY   86  72  62 S8        30.03S HX  92

$$






USA.gov is the U.S. government's official web portal to all federal, state and local government web resources and services.